Scottsdale, AZ

4:24 AM MST on October 22, 2017 (GMT -0700)
Scottsdale

Weather History for KSDL - April, 2013

Change the Weather History Date:

Tuesday, April 23, 2013

  Actual Average Record
Temperature  
Mean Temperature 78 °F -  
Max Temperature 89 °F 81 °F 98 °F (2012)
Min Temperature 66 °F 59 °F 48 °F (2003)
Cooling Degree Days 12    
Growing Degree Days 28 (Base 50)    
Moisture  
Dew Point 25 °F    
Average Humidity 14    
Maximum Humidity 27    
Minimum Humidity 10    
Precipitation  
Precipitation 0.00 in - - ()
Sea Level Pressure  
Sea Level Pressure 29.75 in    
Wind  
Wind Speed 3 mph (SW)    
Max Wind Speed 10 mph    
Max Gust Speed 17 mph    
Visibility 10 miles    
Events      
Averages and records for this station are not official NWS values.
T = Trace of Precipitation, MM = Missing Value Source: NWS Daily Summary

Daily Weather History Graph

Daily Weather History Graph

Search for Another Location

Airport or City:

Trip Planner

Search our weather history database for the weather conditions in past years. The results will help you decide how hot, cold, wet, or windy it might be!

Date:

Astronomy

Apr. 23, 2013 Rise Set
Actual Time 5:47 AM MST 7:04 PM MST
Civil Twilight 5:21 AM MST 7:31 PM MST
Nautical Twilight 4:50 AM MST 8:02 PM MST
Astronomical Twilight 4:17 AM MST 8:34 PM MST
Moon 5:08 PM MST (4/23) 4:11 AM MST (4/23)
Length of Visible Light 14h 09m
Length of Day
13h 17m
Waxing Gibbous, 94% of the Moon is Illuminated
Apr 23
Waxing Gibbous
Apr 25
Full
May 2
Last Quarter
May 9
New
May 17
First Quarter

Hourly Weather History & Observations

Time (MST) Temp. Dew Point Humidity Pressure Visibility Wind Dir Wind Speed Gust Speed Precip Events Conditions
12:53 AM 75.0 °F 21.9 °F 14% 29.72 in 10.0 mi Calm Calm - N/A   Clear
1:53 AM 75.0 °F 19.9 °F 13% 29.72 in 10.0 mi WSW 6.9 mph - N/A   Clear
2:53 AM 71.1 °F 21.9 °F 16% 29.72 in 10.0 mi SSE 5.8 mph - N/A   Clear
3:53 AM 66.9 °F 25.0 °F 21% 29.73 in 10.0 mi South 3.5 mph - N/A   Clear
4:53 AM 68.0 °F 24.1 °F 19% 29.74 in 10.0 mi SSE 4.6 mph - N/A   Clear
5:53 AM 66.0 °F 25.0 °F 21% 29.76 in 10.0 mi Calm Calm - N/A   Clear
6:53 AM 66.0 °F 30.9 °F 27% 29.78 in 10.0 mi Calm Calm - N/A   Clear
7:53 AM 73.0 °F 27.0 °F 18% 29.80 in 10.0 mi Calm Calm - N/A   Clear
8:53 AM 75.9 °F 27.0 °F 16% 29.80 in 10.0 mi SSW 4.6 mph - N/A   Clear
9:53 AM 79.0 °F 23.0 °F 13% 29.81 in 10.0 mi Calm Calm - N/A   Clear
10:53 AM 81.0 °F 25.0 °F 13% 29.82 in 10.0 mi Variable 3.5 mph - N/A   Clear
11:53 AM 82.9 °F 25.0 °F 12% 29.80 in 10.0 mi Calm Calm - N/A   Clear
12:53 PM 84.9 °F 25.0 °F 11% 29.78 in 10.0 mi Variable 5.8 mph - N/A   Clear
1:53 PM 88.0 °F 26.1 °F 11% 29.76 in 10.0 mi WSW 9.2 mph - N/A   Clear
2:53 PM 88.0 °F 25.0 °F 10% 29.74 in 10.0 mi South 6.9 mph - N/A   Clear
3:53 PM 89.1 °F 25.0 °F 10% 29.71 in 10.0 mi SSW 9.2 mph 17.3 mph N/A   Clear
4:53 PM 88.0 °F 25.0 °F 10% 29.70 in 10.0 mi SSW 10.4 mph - N/A   Clear
5:53 PM 88.0 °F 26.1 °F 11% 29.71 in 10.0 mi SSW 6.9 mph - N/A   Clear
6:53 PM 86.0 °F 26.1 °F 11% 29.71 in 10.0 mi Calm Calm - N/A   Clear
7:53 PM 82.0 °F 27.0 °F 13% 29.73 in 10.0 mi Calm Calm - N/A   Clear
8:53 PM 80.1 °F 28.0 °F 15% 29.76 in 10.0 mi Calm Calm - N/A   Clear
9:53 PM 79.0 °F 23.0 °F 13% 29.76 in 10.0 mi West 3.5 mph - N/A   Clear
10:53 PM 75.9 °F 17.1 °F 11% 29.77 in 10.0 mi NNW 3.5 mph - N/A   Clear
11:53 PM 73.0 °F 25.0 °F 17% 29.78 in 10.0 mi North 3.5 mph - N/A   Clear